User: anonymous   Login
Location: Unspecified
(0.0000°N, 0.0000°E)
Time: 19:35:21
(UTC+00:00)
Language:

SO-67 - Orbit

View from above orbital plane
View from above orbital plane
View from above satellite
View from above satellite

Ground track
Ground track

The orbit data is extracted from the following two-line orbital elements,

1 35870U 09049F   17235.49829744  .00006366  00000-0  99537-4 0  9998
2 35870  97.1012 251.6191 0002796 134.3340  22.4601 15.54120579443670
Epoch (UTC): 23 August 2017 11:57:32
Eccentricity: 0.0002796
inclination: 97.1012°
perigee height: 403 km
apogee height: 406 km
right ascension of ascending node: 251.6191°
argument of perigee: 134.3340°
revolutions per day: 15.54120579
mean anomaly at epoch: 22.4601°
orbit number at epoch: 44367

The dashed part of the orbit path shows where the satellite is in the earth's shadow,  

DLR